Temperature
18 19 19 19 20 20 19 18 17 18 17 18 17 17 18 18 18 18 18 18 18 18 17 17 17 16 16 16 16 15 15 15 15 15 14 14 14 14 14 14 14 14 14 14
18 19 19 19 19 19 19 19 18 18 18 17 18 18 18 18 18 18 18 17 17 17 17 17 17 16 16 16 16 15 15 15 15 15 14 14 14 14 14 14 14 14 14 14
16 18 18 18 18 19 19 19 18 18 17 17 16 17 17 18 18 18 18 17 17 17 17 17 16 16 16 16 15 15 15 15 15 15 14 14 14 14 14 14 14 13 13 13
15 17 17 17 18 19 19 18 18 18 17 17 17 18 18 18 18 18 17 17 17 17 17 16 16 16 16 15 15 15 15 14 14 14 14 14 14 14 13 13 13 13 13 13
14 15 16 18 19 19 18 18 18 17 17 17 18 17 17 17 18 18 17 17 17 17 16 16 16 15 15 15 15 15 14 14 14 14 14 14 13 13 13 13 13 13 13 13
14 16 16 17 19 19 18 17 18 17 17 17 17 14 15 17 17 17 17 17 17 16 16 16 15 15 15 15 14 14 14 14 14 14 13 13 13 13 13 13 13 13 13 13
14 15 15 16 18 19 17 17 18 18 18 17 16 16 17 17 17 17 17 16 16 16 16 15 15 15 14 14 14 14 14 14 13 13 13 13 13 13 13 12 13 13 13 13
13 14 15 17 18 17 17 18 18 18 18 17 17 17 17 17 16 16 16 16 16 15 15 15 14 14 14 14 13 13 13 13 13 13 13 12 12 12 12 12 12 12 12 12
14 15 16 18 18 19 19 18 18 18 18 18 17 17 16 16 16 16 15 15 15 15 14 14 14 14 14 13 13 13 13 13 13 13 12 12 12 12 12 12 12 12 12 12
13 14 16 17 18 18 18 18 18 18 18 17 17 17 16 16 15 15 15 15 14 14 14 14 13 13 13 13 13 13 13 13 12 12 12 12 12 12 12 12 11 11 11 11
13 14 16 17 17 18 18 18 18 17 17 17 17 16 16 15 15 15 15 14 14 14 13 13 13 13 13 12 12 12 12 12 12 12 12 12 12 11 11 11 11 11 11 10
13 15 14 16 17 17 17 17 17 17 17 16 16 16 15 15 15 14 14 14 14 13 13 13 13 13 12 12 12 12 12 12 12 11 11 11 11 11 11 10 10 10 10 10
16 16 16 16 16 16 16 17 16 16 16 16 15 15 15 15 14 14 14 14 13 13 13 13 13 12 12 12 12 11 11 11 11 11 11 11 10 10 10 10 10 10 9 9
16 16 15 15 16 16 16 16 16 16 16 15 15 15 15 14 14 14 14 13 13 13 13 12 12 12 12 12 11 11 11 11 11 10 10 10 10 10 9 9 9 9 9 9
15 15 15 15 15 15 15 15 15 15 15 15 14 14 14 14 14 13 13 13 13 12 12 12 12 12 11 11 11 11 11 10 10 10 10 10 10 9 9 9 9 9 8 8
15 15 15 15 15 15 15 15 15 15 14 14 14 14 14 14 13 13 13 12 12 12 12 11 11 11 11 11 11 10 10 10 10 10 9 9 9 9 9 9 8 8 8 8
14 14 14 14 14 14 14 14 14 14 14 14 14 14 13 13 13 12 12 12 12 11 11 11 11 11 10 10 10 10 10 10 9 9 9 9 9 8 8 8 8 8 8 7
14 14 14 14 14 14 14 14 14 14 14 13 13 13 13 12 12 12 12 11 11 11 11 10 10 10 10 10 10 9 9 9 9 9 9 8 8 8 8 7 7 7 7 7
13 13 13 13 13 13 13 13 13 13 13 13 13 13 12 12 12 11 11 11 10 10 10 10 10 10 10 9 9 9 9 9 8 8 8 8 8 7 7 7 7 7 7 7
13 13 13 13 13 13 13 13 13 13 13 12 12 12 12 11 11 11 10 10 10 10 10 9 9 9 9 9 8 8 8 8 8 8 8 8 7 7 7 7 6 6 6 6
12 12 12 12 12 12 12 12 12 12 12 12 12 11 11 11 10 10 10 9 10 9 9 9 9 8 8 8 8 8 7 7 7 7 7 7 7 6 6 6 6 6 6 6
12 12 12 12 12 12 12 12 12 12 11 11 11 11 10 10 10 9 9 9 9 9 9 8 8 8 8 7 7 7 7 7 7 6 6 6 6 6 6 5 5 5 5 5
11 11 11 11 11 11 11 11 11 11 11 11 10 10 10 9 9 9 9 9 8 8 8 8 8 7 7 7 7 7 6 6 6 6 6 5 5 5 5 5 5 4 4 4
10 10 10 11 11 11 11 11 11 10 10 10 10 10 9 9 9 8 8 8 8 8 7 7 7 7 7 6 6 6 6 6 5 5 5 5 5 4 4 4 4 4 4 4
10 10 10 10 10 10 10 10 10 10 10 9 9 9 9 8 8 8 8 7 7 7 7 7 6 6 6 6 5 5 5 5 5 5 4 4 4 4 4 3 3 3 3 3
9 9 9 9 9 9 9 9 9 9 9 8 8 8 8 8 7 7 7 7 6 6 6 6 6 5 5 5 5 4 4 4 4 4 4 3 3 3 3 3 3 3 3 2
8 8 8 8 8 8 8 8 8 8 8 8 7 7 7 7 6 6 6 6 6 5 5 5 5 4 4 4 4 4 4 3 3 3 3 3 3 3 2 2 2 2 2 2
Wind_Speed
6 6 5 6 6 6 5 7 7 6 6 7 6 6 5 4 3 3 3 4 6 5 5 5 5 5 4 4 3 4 4 4 4 4 3 2 2 3 3 4 5 4 4 3
3 4 3 4 6 6 6 5 5 4 5 5 3 2 2 3 4 4 3 4 5 5 4 5 5 5 5 4 5 4 5 5 4 3 3 2 3 3 3 3 3 3 4 4
4 5 3 4 6 5 4 3 5 6 7 3 2 3 4 4 4 5 5 4 5 5 5 6 6 6 6 6 5 4 4 4 4 4 3 3 3 2 2 3 3 3 3 4
2 1 4 7 4 4 4 3 3 4 4 5 6 5 3 3 5 5 4 3 4 4 4 4 4 4 4 4 4 5 4 4 4 4 3 3 3 3 3 2 3 3 3 4
3 3 6 6 4 2 3 3 2 4 3 3 3 4 3 2 2 3 3 3 3 4 3 2 3 3 3 3 3 4 4 5 4 4 3 3 3 3 3 3 3 3 3 4
4 4 6 7 5 2 3 3 4 4 4 3 4 2 4 3 1 1 1 2 2 2 2 2 2 3 4 2 2 3 4 4 4 4 4 4 4 3 2 2 3 3 2 3
5 5 6 7 4 2 3 7 4 4 5 6 5 6 5 3 2 2 2 1 2 3 2 2 2 3 3 2 3 4 3 3 3 3 4 4 3 2 2 2 2 2 2 1
5 5 8 5 2 5 7 4 3 4 5 6 4 3 3 3 2 2 2 2 3 3 1 1 2 4 3 3 3 2 3 3 3 3 3 3 2 2 2 2 2 2 1 1
7 7 5 4 5 4 4 4 4 4 4 5 4 3 3 3 3 3 3 2 2 3 2 0 1 3 4 4 2 3 3 3 3 3 2 3 3 3 2 2 2 2 2 2
3 5 4 3 2 1 3 3 3 4 4 5 4 4 4 4 3 3 2 2 2 3 2 1 1 2 3 3 2 3 3 3 3 3 2 2 2 2 3 3 2 2 2 2
3 4 3 3 2 3 2 2 2 2 3 5 5 4 4 4 4 3 3 2 3 3 3 2 2 2 2 2 3 3 3 3 3 3 3 2 2 2 3 4 4 4 4 4
6 6 4 6 5 3 3 3 3 3 2 2 5 5 4 4 3 3 3 2 2 3 3 3 2 2 3 3 3 4 3 3 3 3 3 3 2 1 2 3 4 5 5 4
6 5 5 5 5 3 4 4 4 4 5 3 3 4 4 3 3 2 2 2 3 4 3 3 2 3 3 3 3 4 4 3 3 3 3 3 3 3 2 2 2 3 4 5
5 2 3 5 5 4 3 4 4 3 3 4 4 3 3 2 2 2 3 3 3 3 3 3 2 3 3 3 3 3 3 3 3 3 3 3 4 4 3 3 2 2 3 4
7 6 7 6 5 4 3 2 3 3 3 2 3 3 4 4 4 4 3 2 2 2 2 3 3 3 3 3 3 3 3 2 3 3 3 3 3 3 3 3 3 2 1 2
6 5 5 6 6 5 4 4 4 4 4 4 3 4 4 4 4 3 2 2 2 3 4 3 4 4 3 3 3 3 3 4 3 2 3 3 3 3 3 3 3 3 3 3
6 7 6 6 7 6 6 6 6 6 5 5 5 4 3 2 2 2 2 3 3 4 4 4 4 3 3 3 4 3 3 3 3 2 3 4 4 4 4 4 4 4 4 4
9 10 9 9 8 7 6 5 5 5 5 5 4 4 4 4 5 4 4 2 1 2 2 3 3 3 3 3 3 3 3 3 3 3 3 3 4 4 4 4 5 5 4 4
8 8 7 7 7 7 6 5 5 4 4 4 5 5 5 5 5 4 3 3 3 4 4 3 3 3 3 4 3 3 3 3 3 3 3 4 4 4 4 5 5 5 5 4
6 6 6 6 5 5 5 5 5 4 4 4 5 4 4 4 4 4 4 4 5 5 4 3 2 2 3 3 3 2 3 3 4 3 3 3 4 4 4 5 5 5 5 5
5 5 5 6 5 5 6 6 5 5 4 4 6 6 5 5 4 4 4 4 4 3 2 3 2 2 2 2 2 2 3 3 3 4 3 3 4 4 4 5 5 5 5 5
4 5 5 5 5 5 5 5 5 5 4 4 5 4 4 4 3 3 4 4 4 3 2 2 2 2 2 2 2 2 2 3 3 3 3 3 4 4 4 4 4 4 4 4
3 4 4 5 6 5 4 5 5 6 5 5 5 5 5 4 4 4 4 3 2 3 2 2 3 3 2 1 2 2 3 3 3 3 3 3 4 4 4 4 4 4 4 4
2 2 3 3 3 4 4 5 5 5 5 5 5 5 5 3 2 3 3 3 3 3 2 3 3 3 2 1 1 2 2 2 3 3 3 3 3 3 3 4 4 4 4 4
2 2 2 2 3 3 4 3 3 3 3 3 3 3 3 4 3 3 2 3 4 3 2 3 3 2 1 1 1 2 2 3 3 2 3 3 3 3 3 4 4 4 4 4
1 2 2 3 3 3 2 3 2 3 3 2 2 2 2 2 2 2 2 2 3 2 2 2 2 2 1 2 2 2 2 3 3 3 3 3 4 4 4 4 5 5 4 5
1 1 0 1 1 1 2 2 2 3 3 4 3 2 2 2 2 2 2 2 2 2 1 1 2 2 2 2 2 2 3 3 3 3 3 3 4 4 4 5 4 4 4 4
Wind_Direction
227 237 220 226 236 230 210 200 200 230 224 239 222 206 200 195 176 154 160 168 178 188 191 186 182 183 186 195 196 182 170 179 203 208 201 191 189 193 186 185 189 189 188 196
281 277 265 262 254 236 228 215 205 208 246 238 213 172 164 175 167 168 179 182 184 181 182 190 192 191 187 192 205 191 186 192 197 191 184 190 193 198 187 189 195 192 193 190
261 293 346 277 249 221 219 227 194 213 227 203 162 176 186 188 180 189 197 195 191 193 197 200 199 195 197 202 193 182 187 192 191 185 177 194 196 183 196 196 190 193 196 185
218 359 241 244 242 201 204 245 206 187 195 181 184 187 189 183 173 185 196 201 207 210 212 211 202 196 195 189 185 186 189 199 196 182 184 188 179 183 196 190 193 195 193 190
159 220 262 276 274 212 195 263 240 176 178 179 133 69 357 302 173 179 186 188 198 196 192 181 185 186 161 177 182 185 199 203 196 185 183 184 191 202 202 188 196 194 189 187
161 193 233 243 258 237 126 259 262 166 159 160 114 134 261 256 201 174 172 175 162 142 125 140 169 141 125 155 163 197 207 198 183 178 178 182 195 202 200 190 197 189 176 189
186 216 251 255 263 96 169 230 230 177 166 162 177 204 215 208 192 166 152 154 136 124 133 169 163 136 138 161 206 216 195 168 159 168 173 173 177 172 171 172 166 165 167 199
171 203 245 247 160 183 214 210 185 173 170 170 182 172 158 169 168 154 137 121 123 126 141 178 155 148 155 200 225 189 152 147 157 164 169 166 158 162 155 154 161 175 172 233
192 214 234 208 197 212 173 171 182 172 180 164 157 168 170 173 169 166 156 143 133 140 143 152 173 159 177 219 208 160 147 158 168 165 166 160 160 164 161 155 168 201 203 235
229 257 255 243 198 176 161 170 182 169 163 153 161 174 175 171 169 168 166 165 151 135 142 223 239 188 195 202 169 150 161 177 176 173 179 176 176 177 176 182 193 207 211 234
239 264 307 290 220 194 178 154 134 137 157 163 160 169 176 179 187 189 188 190 170 169 186 216 227 207 204 189 156 156 175 192 192 189 186 189 195 197 198 209 208 206 214 211
222 226 209 239 238 212 183 182 176 160 166 176 170 173 174 184 196 196 194 188 184 194 205 220 214 210 213 199 169 166 179 197 199 197 194 191 191 224 242 229 238 231 222 212
222 231 224 239 236 216 199 198 190 179 175 183 186 174 168 179 194 191 198 202 205 209 211 214 208 209 215 199 175 175 192 204 200 195 196 198 198 203 243 288 281 249 234 222
230 217 246 242 235 228 211 206 191 187 188 178 173 170 168 173 182 192 213 225 218 206 205 208 211 224 228 200 182 189 199 208 197 201 202 204 209 211 211 215 241 273 263 246
244 227 221 226 229 229 218 182 170 191 196 186 171 171 173 180 201 219 223 224 195 195 212 212 220 240 239 205 191 195 199 207 205 208 206 206 207 207 207 209 216 231 256 266
240 234 215 211 216 225 215 194 189 206 200 190 191 194 194 195 202 210 204 182 178 212 226 223 232 240 226 203 198 203 213 216 203 204 205 205 206 206 211 216 219 224 232 243
213 226 223 220 215 217 220 213 203 201 198 196 199 192 180 173 179 205 233 228 212 219 223 222 231 234 215 203 199 207 210 214 210 209 214 212 211 212 216 218 223 229 237 235
218 220 216 209 208 208 213 216 206 198 199 205 190 174 175 182 198 216 229 236 234 256 255 246 236 218 209 212 213 209 207 211 214 218 222 220 222 222 224 226 228 232 245 243
221 219 216 210 205 202 205 206 206 208 209 192 183 192 200 204 206 212 207 197 207 245 264 261 251 215 218 224 220 208 209 216 227 233 225 226 228 229 230 232 235 237 242 243
214 213 212 214 209 201 204 206 197 201 205 193 190 194 208 220 214 209 206 214 224 238 249 255 232 224 227 224 219 215 218 221 226 230 235 230 229 234 235 237 239 241 241 242
212 211 209 210 215 209 203 199 190 198 206 198 193 201 212 219 212 205 208 238 262 262 247 240 228 234 231 236 227 221 224 226 226 224 229 234 236 241 246 248 247 246 247 248
216 212 210 210 211 217 214 202 196 194 193 200 202 202 200 208 210 215 223 229 239 237 225 228 232 245 249 247 222 221 229 226 226 226 229 235 237 241 247 252 253 253 253 254
231 225 219 215 214 216 211 201 197 192 192 197 198 197 198 206 204 205 242 254 227 222 218 228 246 248 249 232 222 224 231 233 239 241 242 245 244 245 249 252 254 257 261 262
255 252 239 226 203 195 206 214 206 202 197 195 198 197 193 194 226 234 225 224 224 219 220 238 241 239 238 230 223 231 235 238 244 249 253 257 252 249 251 253 257 259 263 264
254 248 229 199 197 212 214 208 198 198 192 194 199 202 199 192 203 220 214 211 215 210 219 233 239 246 227 215 220 234 248 250 254 259 257 259 255 254 254 257 260 264 267 267
259 247 236 225 217 211 201 191 197 200 188 194 229 221 204 191 183 192 197 202 202 212 213 219 224 229 217 222 235 246 254 264 266 264 260 259 258 257 258 259 260 262 265 266
280 276 311 344 327 200 187 187 197 206 198 195 213 220 197 183 180 187 186 186 193 205 217 225 221 216 217 227 241 251 256 261 262 261 261 261 261 261 262 262 264 267 267 268
Height
1527 1523 1523 1523 1522 1521 1525 1529 1535 1530 1528 1522 1519 1518 1517 1518 1518 1518 1518 1519 1520 1521 1521 1522 1523 1525 1526 1527 1527 1528 1529 1529 1530 1530 1531 1531 1531 1531 1531 1531 1532 1532 1533 1533
1526 1521 1521 1522 1519 1519 1520 1520 1522 1523 1523 1516 1515 1515 1515 1516 1516 1516 1517 1517 1517 1518 1519 1520 1520 1521 1522 1523 1524 1525 1526 1526 1527 1527 1528 1528 1528 1528 1528 1529 1529 1530 1530 1530
1534 1525 1522 1528 1519 1517 1517 1515 1516 1521 1518 1514 1515 1514 1514 1514 1514 1515 1515 1515 1515 1516 1516 1517 1517 1518 1519 1520 1521 1522 1522 1523 1523 1524 1525 1525 1525 1526 1526 1526 1526 1527 1527 1527
1534 1531 1537 1524 1510 1510 1512 1512 1510 1510 1510 1510 1511 1511 1512 1512 1512 1513 1513 1513 1513 1513 1514 1514 1515 1515 1516 1517 1517 1518 1519 1519 1520 1521 1522 1522 1522 1523 1523 1523 1524 1524 1524 1525
1536 1537 1530 1518 1509 1508 1511 1513 1508 1508 1508 1509 1509 1510 1511 1511 1511 1511 1511 1511 1511 1511 1511 1511 1512 1512 1513 1513 1514 1514 1515 1516 1517 1518 1519 1519 1519 1520 1520 1521 1521 1521 1521 1522
1533 1534 1533 1517 1505 1504 1508 1515 1506 1505 1506 1507 1508 1514 1512 1509 1509 1509 1509 1509 1509 1508 1508 1508 1509 1509 1509 1509 1510 1510 1511 1512 1513 1514 1515 1516 1516 1517 1518 1518 1518 1518 1518 1519
1529 1530 1522 1508 1503 1504 1517 1513 1504 1503 1503 1504 1505 1506 1506 1506 1507 1507 1506 1506 1506 1506 1506 1505 1506 1506 1506 1506 1507 1507 1508 1509 1510 1511 1512 1513 1513 1514 1514 1515 1515 1515 1515 1516
1526 1528 1522 1502 1502 1505 1504 1500 1500 1500 1501 1501 1502 1503 1503 1503 1504 1504 1504 1504 1504 1503 1503 1503 1503 1503 1503 1503 1504 1505 1505 1506 1507 1508 1509 1509 1510 1511 1511 1512 1512 1512 1512 1513
1512 1511 1500 1497 1498 1498 1498 1498 1498 1498 1499 1499 1500 1501 1501 1501 1501 1502 1502 1502 1502 1501 1501 1501 1500 1500 1500 1500 1501 1502 1502 1503 1504 1505 1506 1506 1507 1507 1508 1508 1509 1509 1509 1509
1505 1500 1497 1496 1495 1496 1497 1497 1497 1497 1497 1497 1498 1498 1498 1499 1499 1499 1500 1500 1499 1499 1498 1498 1498 1498 1498 1498 1499 1499 1499 1500 1501 1502 1502 1503 1504 1504 1504 1505 1505 1505 1505 1505
1502 1498 1496 1494 1494 1495 1495 1496 1495 1495 1495 1495 1495 1496 1496 1496 1497 1497 1497 1497 1497 1496 1496 1495 1495 1495 1495 1496 1496 1496 1497 1498 1498 1499 1499 1499 1500 1500 1500 1501 1501 1502 1502 1502
1498 1494 1494 1493 1492 1493 1493 1493 1493 1493 1493 1493 1493 1493 1493 1494 1494 1494 1495 1495 1494 1494 1493 1493 1492 1492 1492 1493 1493 1493 1494 1494 1495 1495 1495 1496 1496 1496 1496 1497 1497 1498 1498 1498
1489 1489 1490 1489 1489 1490 1490 1490 1490 1490 1490 1490 1491 1491 1491 1491 1492 1492 1492 1491 1491 1491 1490 1490 1490 1490 1489 1490 1490 1490 1490 1491 1491 1492 1492 1492 1492 1492 1492 1493 1493 1493 1493 1494
1485 1486 1486 1486 1487 1487 1487 1487 1487 1487 1487 1488 1488 1488 1488 1488 1488 1489 1489 1488 1488 1488 1488 1487 1487 1487 1487 1487 1487 1487 1487 1487 1487 1488 1488 1488 1488 1488 1488 1488 1488 1488 1489 1489
1480 1481 1481 1482 1483 1483 1484 1484 1484 1484 1484 1484 1484 1485 1485 1485 1485 1485 1486 1485 1485 1485 1484 1484 1484 1484 1483 1483 1483 1483 1483 1484 1484 1484 1484 1484 1484 1484 1484 1484 1484 1484 1484 1484
1475 1476 1477 1478 1478 1479 1479 1480 1480 1480 1480 1480 1480 1481 1481 1482 1482 1482 1482 1482 1482 1481 1481 1480 1480 1480 1480 1480 1480 1480 1480 1480 1480 1480 1480 1480 1480 1480 1480 1480 1480 1480 1480 1480
1470 1470 1471 1472 1473 1474 1474 1475 1475 1476 1476 1476 1476 1477 1477 1478 1478 1478 1478 1478 1478 1478 1478 1477 1477 1477 1477 1476 1476 1476 1476 1476 1476 1476 1476 1476 1476 1476 1476 1476 1476 1475 1475 1475
1464 1464 1465 1466 1468 1468 1469 1470 1471 1471 1472 1472 1473 1473 1473 1474 1474 1474 1474 1474 1474 1474 1474 1474 1473 1473 1472 1472 1472 1472 1472 1471 1471 1471 1471 1471 1471 1472 1472 1471 1471 1471 1470 1470
1457 1459 1460 1462 1463 1464 1465 1466 1466 1467 1468 1468 1469 1469 1469 1469 1470 1470 1470 1470 1469 1469 1469 1469 1469 1468 1468 1468 1468 1467 1467 1467 1467 1467 1467 1467 1467 1467 1467 1467 1466 1466 1466 1465
1453 1454 1455 1457 1458 1459 1461 1461 1462 1463 1464 1464 1464 1464 1464 1465 1465 1465 1465 1465 1465 1465 1465 1464 1464 1464 1463 1463 1463 1463 1462 1462 1462 1462 1462 1461 1461 1461 1461 1461 1461 1461 1460 1460
1448 1449 1450 1452 1453 1454 1456 1457 1457 1458 1459 1460 1460 1460 1460 1460 1460 1460 1460 1460 1460 1461 1460 1460 1459 1459 1459 1458 1458 1458 1458 1457 1457 1457 1457 1456 1456 1456 1456 1456 1455 1455 1455 1454
1444 1445 1446 1447 1448 1449 1450 1451 1452 1453 1454 1455 1455 1455 1455 1455 1455 1455 1455 1456 1455 1455 1455 1455 1455 1455 1454 1454 1454 1453 1453 1453 1453 1452 1452 1452 1451 1451 1450 1450 1449 1449 1449 1448
1440 1441 1442 1442 1443 1444 1445 1446 1447 1448 1449 1449 1450 1450 1450 1450 1450 1450 1450 1451 1451 1451 1450 1450 1450 1450 1450 1449 1449 1449 1448 1448 1448 1448 1447 1447 1446 1446 1445 1445 1444 1444 1443 1442
1436 1437 1437 1438 1439 1439 1440 1441 1442 1443 1444 1444 1445 1446 1446 1446 1446 1446 1446 1446 1446 1446 1446 1446 1446 1446 1445 1445 1444 1444 1444 1444 1443 1443 1442 1442 1441 1440 1440 1439 1438 1438 1437 1436
1433 1433 1433 1433 1434 1434 1435 1436 1437 1438 1439 1439 1440 1441 1441 1441 1441 1441 1442 1442 1442 1442 1442 1442 1442 1441 1441 1440 1440 1439 1439 1439 1439 1438 1437 1437 1436 1435 1434 1434 1433 1432 1431 1430
1430 1429 1429 1430 1430 1430 1431 1432 1432 1433 1434 1434 1435 1435 1436 1436 1437 1437 1437 1437 1437 1437 1437 1437 1437 1437 1436 1436 1435 1435 1435 1434 1434 1433 1432 1432 1431 1430 1429 1428 1427 1426 1425 1424
1427 1426 1426 1426 1426 1427 1427 1428 1428 1429 1429 1430 1430 1430 1431 1432 1432 1432 1432 1432 1433 1433 1433 1433 1433 1432 1432 1432 1431 1431 1430 1429 1429 1428 1428 1427 1426 1425 1424 1423 1422 1421 1419 1418